Dewpoint
63 63 63 64 67 70 70 69 67 68 69 69 69 69 69 69 69 68 68 68 68 68 68 68 69 70 70 71 70 70 69 67 66 67 67 67 67 67 68 68 68 68 69
58 59 59 62 65 67 70 71 71 68 68 70 70 69 69 69 69 68 68 68 68 68 68 68 68 69 69 70 70 70 69 69 68 67 66 67 67 68 68 67 68 68 69
57 56 55 56 59 63 65 68 71 71 69 68 71 70 69 69 69 69 68 68 68 68 68 68 68 68 67 68 68 69 69 69 68 67 67 68 68 68 67 68 67 67 69
56 56 55 54 55 60 63 67 69 70 72 70 69 70 70 70 69 69 68 68 69 69 69 70 70 70 70 70 70 70 70 69 69 68 68 68 67 67 67 66 65 68 67
55 56 55 54 57 59 60 62 66 68 70 72 72 71 69 69 70 69 69 68 69 69 69 70 70 70 70 70 69 69 69 69 69 68 68 67 66 66 66 65 66 66 68
53 55 55 55 56 58 59 61 65 66 66 70 71 71 72 71 69 69 69 69 69 70 69 70 70 69 69 69 68 69 69 69 68 68 67 67 67 66 66 65 64 63 63
53 56 55 55 56 58 61 62 58 57 59 62 69 69 71 72 70 68 68 70 70 70 70 70 70 70 70 70 69 69 68 69 70 69 67 67 67 67 66 65 65 64 65
56 56 56 56 58 59 59 59 57 55 56 56 60 66 69 71 70 69 68 68 68 69 70 71 70 70 71 70 70 69 69 69 69 68 69 68 68 69 67 66 65 65 65
49 52 55 56 54 53 53 54 55 55 54 54 59 64 66 69 69 67 67 66 66 65 66 66 67 67 70 69 69 69 69 69 69 68 68 69 69 68 67 67 65 65 64
46 47 49 49 50 50 51 52 54 54 54 55 59 64 66 68 68 65 66 66 66 65 65 65 65 65 68 64 65 65 66 67 68 68 68 67 66 66 64 67 66 65 64
46 47 47 48 49 50 51 52 53 53 54 55 58 61 64 68 70 66 62 65 65 64 63 63 66 67 66 64 65 66 66 65 67 68 68 69 68 67 67 65 67 67 65
46 47 47 47 48 49 51 51 52 52 53 55 59 62 65 68 69 64 64 65 65 63 63 64 67 68 66 64 63 62 62 64 66 67 68 68 67 67 67 67 67 67 68
48 48 48 47 48 49 49 50 51 51 53 56 61 63 65 67 67 65 64 63 63 63 64 66 67 65 63 61 61 61 62 63 65 65 65 65 66 67 67 67 68 67 67
48 49 49 49 48 49 50 52 51 51 54 60 62 64 65 66 65 63 62 61 60 62 63 63 63 62 62 63 62 61 62 64 64 65 65 66 65 65 65 66 66 66 66
48 49 49 50 50 50 52 53 52 55 59 61 63 65 65 64 63 63 63 63 63 63 63 63 62 63 63 63 63 64 64 64 63 64 64 64 64 65 65 66 66 64 64
49 48 50 51 53 53 55 55 53 52 51 51 54 57 62 65 62 62 62 63 62 62 62 61 61 61 61 61 61 62 63 63 62 63 63 62 62 62 62 62 64 63 63
49 49 50 52 54 57 57 57 53 52 50 50 53 57 62 62 61 61 61 61 61 61 61 61 61 62 62 62 62 61 60 59 59 59 59 59 60 58 58 59 59 56 55
49 49 51 51 52 52 52 53 56 56 54 54 52 52 52 56 56 57 58 61 61 61 61 61 60 59 59 60 59 58 59 58 57 57 58 58 58 56 55 55 55 54 54
50 50 50 50 50 50 52 53 53 54 54 54 53 54 55 55 56 57 58 59 58 58 58 57 56 57 59 60 59 58 58 59 59 57 56 57 56 55 55 55 55 55 54
49 49 49 50 49 48 49 50 52 52 52 53 53 53 54 54 53 54 54 55 56 58 59 57 57 57 57 57 57 56 55 57 57 58 57 56 56 55 54 55 55 53 52
47 46 45 46 49 47 47 48 51 49 50 50 49 47 50 52 51 50 50 48 47 47 48 54 58 58 57 55 55 56 55 53 52 50 48 49 48 47 45 45 47 50 48
47 46 44 41 41 47 49 48 46 44 48 49 49 48 48 48 48 46 46 46 46 47 48 49 50 53 54 55 56 54 54 53 50 52 51 48 47 45 43 42 43 42 42
46 43 42 42 39 39 38 39 38 37 37 38 39 40 39 41 43 42 42 42 41 42 43 45 48 49 49 49 50 53 52 52 52 51 48 47 46 47 43 41 41 41 41
40 39 40 40 39 38 39 39 39 39 40 41 41 42 42 42 42 43 43 43 42 41 41 40 39 38 38 37 37 37 39 43 46 50 49 47 47 45 44 44 44 44 41
39 40 40 38 37 38 38 38 39 39 40 41 41 42 43 43 43 43 43 42 42 40 39 38 37 36 35 34 35 36 36 38 40 42 44 45 47 48 48 49 48 47 46
37 41 40 39 37 37 38 39 39 39 40 40 40 41 42 41 40 41 43 42 41 39 38 36 35 34 35 35 34 34 33 34 35 37 39 39 39 40 41 42 44 47 49
Wind_Speed
6 9 11 14 16 18 21 25 25 25 21 19 22 21 21 20 20 20 21 20 19 21 18 18 21 17 19 17 15 15 16 13 18 13 9 7 10 15 14 11 11 12 9
10 11 13 14 15 15 17 18 21 24 23 24 21 23 23 21 21 22 23 23 22 22 22 18 21 17 19 18 17 19 18 15 16 23 12 12 13 9 13 13 11 10 10
6 10 14 15 15 17 17 17 14 18 23 24 21 24 26 25 24 22 23 24 23 24 24 21 22 18 21 19 19 20 18 17 17 16 19 7 9 5 11 8 9 10 8
13 11 12 14 16 16 16 16 17 17 18 25 25 25 26 26 26 25 24 24 23 22 22 23 23 22 23 21 19 20 18 18 15 16 17 15 12 9 8 12 15 5 14
16 16 17 16 15 16 17 17 16 17 18 17 21 24 26 27 25 26 25 25 24 23 22 22 22 23 26 24 20 21 19 20 17 17 18 12 15 14 16 7 10 11 11
22 23 20 18 18 16 16 17 16 17 19 20 17 21 25 23 28 32 31 25 27 26 25 24 23 24 27 30 29 30 24 22 20 16 18 18 23 17 12 15 12 9 9
23 23 19 18 19 19 16 15 18 19 19 23 21 19 21 22 28 27 27 24 17 18 21 21 19 19 23 20 23 29 27 27 29 24 22 22 21 17 13 15 13 11 12
19 18 18 17 17 17 18 18 20 19 19 21 24 22 21 21 19 21 16 10 4 9 13 16 18 20 18 19 21 21 21 22 23 23 26 27 21 20 17 14 14 9 6
24 21 17 16 19 21 23 23 18 20 22 22 23 23 24 23 25 20 21 18 18 20 17 20 21 21 18 15 18 16 18 22 17 24 25 23 21 17 13 9 14 12 12
23 23 23 19 20 24 25 25 21 18 22 23 25 23 26 27 23 30 28 18 23 26 23 31 27 23 20 17 15 15 18 23 13 16 15 22 25 24 20 19 15 16 12
20 23 25 23 22 23 25 25 23 21 21 23 24 25 26 26 24 30 33 24 25 25 22 14 16 22 27 20 17 19 27 27 19 18 18 17 16 17 16 18 20 19 16
21 22 26 28 26 24 24 24 24 22 22 23 23 24 23 23 25 26 32 31 20 18 16 18 15 19 22 27 29 30 30 23 17 18 19 20 19 21 16 13 16 18 17
24 25 27 30 28 25 24 25 24 21 21 21 20 20 20 16 17 25 32 28 21 18 15 14 11 12 16 22 30 33 28 20 18 20 22 24 23 23 14 9 10 13 11
26 28 28 28 28 25 23 24 23 22 21 20 20 19 17 13 14 15 18 18 19 17 13 8 5 5 4 3 2 6 9 7 10 14 12 9 6 8 9 9 11 14 11
30 27 27 27 27 25 24 24 21 23 21 17 18 19 18 15 17 19 18 14 12 10 9 5 4 5 5 4 3 4 6 7 8 6 5 5 5 3 5 6 9 8 10
28 26 27 25 22 20 20 18 15 17 19 21 29 28 9 12 21 20 16 13 12 14 5 4 5 7 8 8 7 6 4 2 1 3 1 2 3 2 3 2 2 8 13
36 32 25 23 18 8 14 14 12 7 13 12 10 10 15 17 18 17 15 15 15 11 6 7 6 5 6 8 5 2 2 5 6 6 6 5 10 10 9 9 12 16 13
32 35 27 23 21 22 22 16 4 4 12 14 19 17 15 18 15 14 15 13 10 4 3 6 6 6 7 10 11 8 5 5 6 8 9 9 10 10 10 11 12 15 15
18 24 26 24 25 26 24 22 17 7 19 16 12 21 16 21 17 12 10 9 9 7 7 7 6 7 6 6 6 5 4 4 3 6 4 1 2 5 6 6 7 8 8
18 20 12 18 20 24 28 25 19 22 20 23 22 22 18 23 22 16 17 12 9 5 4 7 6 4 4 4 4 5 3 3 2 3 4 9 6 6 6 7 8 7 9
15 15 8 3 12 25 27 19 8 19 24 22 19 16 18 20 17 17 22 21 20 17 12 12 9 6 5 5 3 2 4 4 3 3 4 4 4 6 5 7 6 13 11
15 15 14 15 5 4 11 7 13 8 11 23 25 23 24 13 8 8 12 10 11 7 5 7 13 15 11 8 5 5 5 5 5 1 3 3 2 1 3 2 2 3 3
8 10 16 15 13 16 14 9 10 13 15 16 10 10 12 17 16 16 16 13 13 12 11 12 15 16 14 16 15 13 12 9 7 5 7 7 5 4 4 4 4 4 3
10 11 8 7 9 8 8 11 14 16 15 15 14 14 14 12 14 15 13 10 12 14 13 14 16 16 14 16 15 15 13 11 10 11 9 8 6 7 11 12 14 12 10
11 8 10 9 12 14 16 15 16 17 15 13 13 14 13 14 14 14 13 12 13 14 14 13 12 14 17 18 18 19 19 24 21 18 16 14 11 8 4 2 2 1 4
15 11 6 5 5 7 8 10 9 9 10 10 11 10 11 12 11 10 10 12 12 11 11 11 13 15 15 15 15 18 21 22 20 20 16 15 14 14 12 11 10 7 6
Wind_Direction
1 346 330 322 300 297 256 247 244 246 239 229 235 237 237 236 237 231 233 236 233 241 240 240 248 248 258 261 259 253 249 233 255 275 257 270 281 283 288 303 306 312 319
340 337 332 323 320 323 324 263 256 249 245 244 239 238 240 237 235 233 234 235 229 236 241 237 244 244 250 254 260 262 255 243 240 266 280 278 275 270 282 299 296 305 315
295 317 324 327 328 326 328 323 321 259 251 250 237 236 238 238 237 232 232 235 234 231 235 233 238 234 245 248 250 254 256 252 241 251 272 266 274 268 287 278 283 298 297
286 287 294 308 316 314 314 312 310 308 288 263 253 244 240 236 231 231 229 231 233 234 234 233 234 230 237 243 242 247 251 255 257 259 265 267 275 274 262 278 290 280 303
271 273 284 293 293 301 307 310 307 304 297 291 265 253 252 244 237 234 230 226 228 230 231 234 235 235 233 232 237 247 245 251 257 258 262 264 269 274 267 254 262 292 296
293 278 280 290 298 296 296 302 303 307 307 294 281 277 261 251 243 228 226 223 221 223 229 230 232 235 238 240 240 239 236 244 254 243 252 252 264 257 257 254 263 289 304
284 276 281 287 293 293 290 293 302 298 301 299 290 287 279 264 249 245 231 232 227 226 233 239 238 237 236 233 241 246 247 240 238 241 247 249 255 251 253 258 248 247 251
308 296 296 297 296 299 296 284 287 293 291 293 288 284 282 275 216 187 156 164 133 3 321 292 253 255 253 240 242 245 249 249 243 239 242 252 241 250 233 247 251 246 259
307 304 298 294 296 294 290 288 275 281 289 288 280 278 278 272 218 200 192 197 198 211 244 278 273 278 257 223 233 243 255 258 251 244 239 244 248 252 231 213 246 234 257
300 299 297 289 284 284 282 281 279 268 275 282 280 271 272 265 244 222 216 209 211 216 221 235 243 248 213 195 226 237 250 255 267 256 243 246 248 252 232 224 233 229 226
292 295 294 291 282 274 275 275 274 272 269 272 272 274 270 260 255 235 214 209 220 222 229 239 245 228 204 212 218 234 249 269 253 251 252 253 250 240 226 213 222 215 220
283 282 289 287 281 274 267 266 270 271 269 264 261 266 260 258 247 223 208 208 209 213 233 232 222 228 238 245 238 241 253 249 247 250 254 259 253 248 233 201 215 217 222
291 282 286 283 276 270 263 261 269 265 260 257 254 256 259 243 227 215 213 214 203 208 224 247 242 234 242 243 250 253 256 246 248 253 259 261 254 248 215 202 200 214 213
300 293 289 278 274 265 258 253 258 256 252 253 252 259 254 229 209 195 208 225 227 229 238 229 198 192 186 191 197 216 221 240 253 250 258 273 221 211 220 206 218 209 194
313 304 295 282 272 266 252 247 244 243 251 260 264 263 247 218 206 192 192 183 178 176 165 158 176 196 210 222 233 251 249 251 251 263 275 264 268 249 257 219 216 195 185
326 322 312 298 280 255 247 245 224 248 261 255 253 249 240 200 160 154 152 161 159 150 135 165 202 212 220 231 238 241 244 207 298 288 224 220 225 169 130 54 211 209 191
331 330 325 326 330 271 242 225 174 113 76 67 84 128 142 145 143 146 151 158 160 154 175 194 214 235 252 253 247 132 151 112 98 81 46 66 87 73 83 99 93 72 21
324 338 352 359 7 29 22 10 13 174 99 64 52 79 98 116 125 138 141 128 131 129 165 165 137 124 103 104 111 115 134 120 119 104 98 95 94 100 83 63 82 95 92
327 325 347 1 11 20 16 15 357 66 83 72 57 58 48 74 86 82 76 113 122 110 118 123 143 138 126 122 135 147 174 177 159 144 138 172 135 119 125 112 107 108 107
306 313 348 3 12 25 19 2 17 31 60 69 61 51 43 62 52 46 55 50 59 100 144 165 174 151 120 116 129 132 127 144 153 167 213 229 221 212 216 201 189 200 207
298 305 298 8 8 45 19 13 35 56 51 48 45 32 51 66 69 60 55 43 45 35 29 57 86 94 92 98 115 153 149 138 158 179 208 219 196 212 232 223 207 204 218
311 316 316 317 252 194 103 24 28 26 106 97 84 61 43 29 66 87 100 100 101 108 75 77 73 74 74 83 106 124 111 86 66 74 135 129 170 210 135 101 109 132 167
328 323 323 330 322 309 329 346 44 64 49 51 100 129 116 107 84 71 72 79 76 65 52 65 75 68 55 59 58 69 72 50 36 36 56 74 93 151 152 122 125 127 138
348 2 5 357 355 16 37 53 49 47 56 70 73 77 91 89 91 91 89 80 80 69 56 65 70 70 65 62 58 55 49 44 42 44 51 63 63 100 108 111 111 102 92
13 19 39 41 72 80 75 75 72 79 85 83 90 94 96 98 93 95 101 97 90 84 73 71 68 69 69 71 69 66 63 57 53 45 42 44 47 37 37 17 331 144 152
2 7 33 36 108 106 107 114 99 92 99 108 112 115 113 112 108 106 109 107 95 83 76 71 77 81 76 71 71 66 59 55 51 49 48 45 42 42 36 21 17 12 342